Location: Cuguron
(43.0994°N, 0.5363°E)
Time: 21:57:13
(UTC+00:00)

SL-16 R/B - Pass Details

Date: 15 May 2026
Orbit: 841 x 844 km, 71.0° (Epoch: 10 June)

Event Time Altitude Azimuth Distance (km) Brightness Sun altitude
Rises 22:50:36 0° 315° (NW) 3,410 6.3 -26.2°
Reaches altitude 10° 22:54:40 10° 286° (WNW) 2,468 5.0 -26.4°
Maximum altitude 22:56:48 12° 264° (W) 2,308 4.5 -26.5°
Enters shadow 22:58:25 11° 247° (WSW) 2,396 4.5 -26.5°
